Location: Newark
(11.2914°S, 14.4718°E)
Time: 09:04:55
(UTC+00:00)

Vanguard 3 - All Passes

Search period start: 22 October 2019 00:00
Search period end: 01 November 2019 00:00
Orbit: 508 x 3262 km, 33.3° (Epoch: 21 October)

Date Brightness Start Highest point End Pass type
(mag) Time Alt. Az. Time Alt. Az. Time Alt. Az.
22 Oct - 04:49:18 10° N 04:57:00 30° NE 05:08:53 10° E daylight
22 Oct - 06:58:55 10° NW 07:10:27 88° SW 07:29:30 10° SE daylight
22 Oct - 09:13:23 10° W 09:28:20 47° SSW 09:47:21 10° SE daylight
22 Oct - 11:32:33 10° WSW 11:49:39 35° S 12:05:29 10° ESE daylight
22 Oct - 13:52:36 10° SW 14:10:33 43° SSE 14:22:55 10° E daylight
22 Oct - 16:11:05 10° SW 16:27:32 84° SSE 16:36:37 10° ENE daylight
22 Oct - 18:31:09 10° W 18:39:56 25° NW 18:45:43 10° N visible
23 Oct - 03:40:04 10° NNE 03:42:53 12° NE 03:46:08 10° ENE visible
23 Oct - 05:45:26 10° NW 05:54:50 62° NE 06:11:12 10° ESE daylight
23 Oct - 07:57:36 10° WNW 08:10:28 59° SSW 08:29:48 10° SE daylight
23 Oct - 10:14:32 10° WSW 10:30:27 37° S 10:48:01 10° SE daylight
23 Oct - 12:34:21 10° SW 12:52:13 38° S 13:06:41 10° ESE daylight
23 Oct - 14:53:09 10° SW 15:11:23 61° SSE 15:22:28 10° ENE daylight
23 Oct - 17:11:57 10° WSW 17:25:57 53° NW 17:33:51 10° NNE visible
24 Oct - 04:33:04 10° NNW 04:40:20 34° NE 04:52:04 10° ESE daylight
24 Oct - 06:43:01 10° WNW 06:53:42 79° SSW 07:11:58 10° SE daylight
24 Oct - 08:57:37 10° W 09:11:41 43° SSW 09:30:14 10° SE daylight
24 Oct - 11:16:14 10° WSW 11:33:09 35° S 11:49:24 10° ESE daylight
24 Oct - 13:35:16 10° SW 13:54:02 48° SSE 14:07:18 10° E daylight
24 Oct - 15:53:33 10° WSW 16:10:58 86° NW 16:20:47 10° NE daylight
24 Oct - 18:14:40 10° W 18:23:25 23° NW 18:29:25 10° N visible
25 Oct - 03:22:56 10° NNE 03:26:28 13° NE 03:30:50 10° ENE visible
25 Oct - 05:29:28 10° NW 05:38:09 70° NE 05:53:50 10° ESE daylight
25 Oct - 07:41:52 10° W 07:53:50 53° SSW 08:12:19 10° SE daylight
25 Oct - 09:58:39 10° WSW 10:13:54 36° S 10:31:25 10° SE daylight
25 Oct - 12:17:28 10° SW 12:35:40 40° SSE 12:50:55 10° ESE daylight
25 Oct - 14:35:36 10° SW 14:54:45 69° SSE 15:06:43 10° ENE daylight
25 Oct - 16:54:47 10° WSW 17:09:16 47° NW 17:17:49 10° NNE daylight
26 Oct - 04:16:57 10° NNW 04:23:45 38° NE 04:35:11 10° ESE daylight
26 Oct - 06:27:15 10° WNW 06:37:07 70° SSW 06:54:24 10° SE daylight
26 Oct - 08:41:57 10° WSW 08:55:10 39° SSW 09:13:06 10° SE daylight
26 Oct - 10:59:55 10° SW 11:16:37 36° S 11:33:19 10° ESE daylight
26 Oct - 13:17:58 10° SW 13:37:22 53° SSE 13:51:31 10° E daylight
26 Oct - 15:36:05 10° WSW 15:54:12 77° NW 16:04:51 10° NE daylight
26 Oct - 17:58:18 10° W 18:06:52 20° NW 18:13:00 10° N visible
27 Oct - 03:06:13 10° NNE 03:10:05 15° NE 03:15:07 10° E visible
27 Oct - 05:13:37 10° NW 05:21:37 81° NE 05:36:27 10° ESE daylight
27 Oct - 07:26:16 10° W 07:37:23 46° SSW 07:54:50 10° SE daylight
27 Oct - 09:42:49 10° WSW 09:57:26 35° S 10:14:49 10° ESE daylight
27 Oct - 12:00:37 10° SW 12:19:01 43° SSE 12:35:02 10° E daylight
27 Oct - 14:18:07 10° SW 14:37:56 77° SSE 14:50:49 10° ENE daylight
27 Oct - 16:37:40 10° WSW 16:52:29 41° NW 17:01:39 10° NNE daylight
28 Oct - 04:00:56 10° NNW 04:07:17 44° NE 04:18:16 10° ESE visible
28 Oct - 06:11:37 10° WNW 06:20:44 60° SSW 06:36:49 10° SE daylight
28 Oct - 08:26:23 10° WSW 08:38:47 36° S 08:55:57 10° SE daylight
28 Oct - 10:43:36 10° SW 11:00:03 37° S 11:17:11 10° ESE daylight
28 Oct - 13:00:43 10° SW 13:20:32 58° SSE 13:35:37 10° ENE daylight
28 Oct - 15:18:41 10° WSW 15:37:17 68° NW 15:48:46 10° NE daylight
28 Oct - 17:42:07 10° W 17:50:17 18° NW 17:56:23 10° N visible
29 Oct - 02:49:44 10° N 02:53:45 18° NE 02:59:11 10° E visible
29 Oct - 04:57:54 10° WNW 05:05:15 87° SSW 05:19:03 10° SE daylight
29 Oct - 07:10:49 10° W 07:21:05 41° SSW 07:37:19 10° SE daylight
29 Oct - 09:27:00 10° WSW 09:41:01 34° S 09:58:13 10° ESE daylight
29 Oct - 11:43:47 10° SW 12:02:14 46° SSE 12:19:03 10° E daylight
29 Oct - 14:00:42 10° SW 14:20:57 85° SE 14:34:45 10° ENE daylight
29 Oct - 16:20:39 10° WSW 16:35:38 37° NW 16:45:21 10° NNE daylight
30 Oct - 03:45:03 10° NW 03:50:56 52° NE 04:01:20 10° ESE visible
30 Oct - 05:56:08 10° W 06:04:30 51° SSW 06:19:14 10° SE daylight
30 Oct - 08:10:54 10° WSW 08:22:30 33° S 08:38:50 10° SE daylight
30 Oct - 10:27:17 10° SW 10:43:25 38° SSE 11:00:59 10° ESE daylight
30 Oct - 12:43:32 10° SW 13:03:31 64° SSE 13:19:33 10° ENE daylight
30 Oct - 15:01:22 10° WSW 15:20:14 61° NW 15:32:32 10° NE daylight
30 Oct - 17:26:10 10° WNW 17:33:40 16° NW 17:39:35 10° NNW visible
31 Oct - 02:33:26 10° N 02:37:28 21° NE 02:43:08 10° E visible
31 Oct - 04:42:16 10° WNW 04:49:03 74° SSW 05:01:40 10° SE daylight
31 Oct - 06:55:28 10° WSW 07:04:56 36° SSW 07:19:50 10° SE daylight
31 Oct - 09:11:11 10° SW 09:24:36 33° S 09:41:37 10° ESE daylight
31 Oct - 11:26:59 10° SW 11:45:19 50° SSE 12:02:55 10° E daylight
31 Oct - 13:43:24 10° WSW 14:03:48 87° NW 14:18:32 10° NE daylight
31 Oct - 16:03:45 10° W 16:18:41 33° NW 16:28:55 10° NNE daylight
